Date String (YYYY-MM-DD hh:mm:ss) UTC,Instrument flags,Ambient pressure (hPa),Sample flow (lpm),Bypass flow (lpm),Sample temperature (°C),Ambient temperature (°C),ASC tube jacket temperature (°C),LED temperature (°C),Box temperature (°C),Sample RH (%),Span deviation,Mass concentration (μg/m³),Mass concentration (μg/m³),Mass concentration (μg/m³)
DateTimeUTC,F1_M11,P_M11,Q1_M11,Q2_M11,T1_M11,T2_M11,T3_M11,T4_M11,T5_M11,U1_M11,ZSPAN_M11,X0_M11,X2_M11,X1_M11
2023-05-06 04:00:00,,0825.2,4.99,0.00,30.4,28.6,00.0,38.9,31.8,09.2,0000.0,0010.28,0003.60,0001.89
2023-05-06 04:01:00,,0825.3,5.00,0.00,30.4,28.5,00.0,38.9,31.7,09.1,0000.0,0010.09,0003.55,0001.89
2023-05-06 04:02:00,,0825.2,4.99,0.00,30.3,28.5,00.0,38.9,31.8,09.2,0000.0,0009.89,0003.49,0001.91
2023-05-06 04:03:00,,0825.2,5.00,0.00,30.3,28.5,00.0,38.9,31.8,09.3,0000.0,0009.79,0003.52,0001.92
2023-05-06 04:04:00,,0825.2,5.00,0.00,30.3,28.6,00.0,38.9,31.8,09.6,0000.0,0009.80,0003.56,0001.92
2023-05-06 04:05:00,,0825.2,5.01,0.00,30.3,28.6,00.0,38.9,31.8,10.4,0000.0,0009.87,0003.61,0001.94
2023-05-06 04:06:00,,0825.3,5.01,0.00,30.3,28.7,00.0,38.8,31.8,11.1,0000.0,0009.13,0003.60,0001.96
2023-05-06 04:07:00,,0825.3,5.00,0.00,30.4,28.7,00.0,38.8,31.8,11.0,0000.0,0009.26,0003.60,0001.96
2023-05-06 04:08:00,,0825.3,5.00,0.00,30.4,28.8,00.0,38.8,31.8,10.4,0000.0,0009.81,0003.61,0001.97
2023-05-06 04:09:00,,0825.3,5.00,0.00,30.4,28.8,00.0,38.8,31.8,09.9,0000.0,0009.73,0003.61,0001.97
2023-05-06 04:10:00,,0825.4,5.00,0.00,30.4,28.8,00.0,38.8,31.8,09.8,0000.0,0009.59,0003.58,0001.96
2023-05-06 04:11:00,,0825.3,5.00,0.00,30.4,28.8,00.0,38.8,31.8,10.4,0000.0,0009.65,0003.61,0001.96
2023-05-06 04:12:00,,0825.3,5.00,0.00,30.4,28.8,00.0,38.8,31.8,10.8,0000.0,0009.88,0003.67,0001.98
2023-05-06 04:13:00,,0825.4,5.00,0.00,30.4,28.8,00.0,38.8,31.9,10.8,0000.0,0010.32,0003.70,0001.98
2023-05-06 04:14:00,,0825.3,5.00,0.00,30.4,28.8,00.0,38.8,31.9,10.9,0000.0,0010.67,0003.67,0002.01
2023-05-06 04:15:00,,0825.3,4.99,0.00,30.4,28.8,00.0,38.8,31.9,10.5,0000.0,0011.19,0003.62,0002.04
2023-05-06 04:16:00,,0825.3,5.00,0.00,30.4,28.8,00.0,38.8,31.9,10.0,0000.0,0011.05,0003.61,0002.05
2023-05-06 04:17:00,,0825.4,5.00,0.00,30.4,28.8,00.0,38.8,31.9,10.6,0000.0,0011.06,0003.60,0002.05
2023-05-06 04:18:00,,0825.4,5.01,0.00,30.4,28.8,00.0,38.8,31.9,10.3,0000.0,0010.77,0003.59,0002.05
2023-05-06 04:19:00,,0825.4,5.00,0.00,30.4,28.8,00.0,38.8,31.9,10.9,0000.0,0010.06,0003.60,0002.05
2023-05-06 04:20:00,,0825.4,5.00,0.00,30.4,28.7,00.0,38.8,31.9,11.9,0000.0,0009.73,0003.66,0002.07
2023-05-06 04:21:00,,0825.3,5.00,0.00,30.4,28.7,00.0,38.8,31.9,12.0,0000.0,0009.76,0003.68,0002.10
2023-05-06 04:22:00,,0825.4,5.00,0.00,30.4,28.7,00.0,38.8,31.9,11.6,0000.0,0009.88,0003.68,0002.12
2023-05-06 04:23:00,,0825.4,5.00,0.00,30.4,28.7,00.0,38.8,31.9,11.9,0000.0,0010.63,0003.69,0002.14
2023-05-06 04:24:00,,0825.4,4.99,0.00,30.3,28.7,00.0,38.8,31.8,12.1,0000.0,0010.55,0003.72,0002.15
2023-05-06 04:25:00,,0825.3,5.01,0.00,30.3,28.7,00.0,38.8,31.8,12.1,0000.0,0010.35,0003.77,0002.16
2023-05-06 04:26:00,,0825.4,5.00,0.00,30.3,28.7,00.0,38.8,31.8,12.4,0000.0,0009.83,0003.80,0002.15
2023-05-06 04:27:00,,0825.4,5.00,0.00,30.3,28.6,00.0,38.8,31.8,12.0,0000.0,0009.91,0003.75,0002.15
2023-05-06 04:28:00,,0825.4,5.00,0.00,30.3,28.5,00.0,38.8,31.7,11.6,0000.0,0010.08,0003.80,0002.17
2023-05-06 04:29:00,,0825.4,4.99,0.00,30.3,28.5,00.0,38.7,31.7,11.8,0000.0,0010.41,0003.83,0002.19
2023-05-06 04:30:00,,0825.4,5.00,0.00,30.3,28.5,00.0,38.7,31.7,11.7,0000.0,0010.37,0003.79,0002.20
2023-05-06 04:31:00,,0825.5,5.01,0.00,30.2,28.5,00.0,38.7,31.7,11.7,0000.0,0010.14,0003.75,0002.21
2023-05-06 04:32:00,,0825.5,5.00,0.00,30.2,28.4,00.0,38.7,31.6,11.6,0000.0,0010.14,0003.74,0002.23
2023-05-06 04:33:00,,0825.5,4.99,0.00,30.2,28.4,00.0,38.7,31.7,11.2,0000.0,0010.01,0003.70,0002.24
2023-05-06 04:34:00,,0825.4,5.00,0.00,30.2,28.4,00.0,38.7,31.6,11.5,0000.0,0009.60,0003.67,0002.24
2023-05-06 04:35:00,,0825.4,5.01,0.00,30.2,28.4,00.0,38.7,31.7,12.0,0000.0,0009.66,0003.65,0002.25
2023-05-06 04:36:00,,0825.5,5.00,0.00,30.2,28.5,00.0,38.7,31.7,12.2,0000.0,0009.68,0003.65,0002.26
2023-05-06 04:37:00,,0825.4,4.99,0.00,30.2,28.5,00.0,38.7,31.7,12.6,0000.0,0009.66,0003.69,0002.30
2023-05-06 04:38:00,,0825.4,5.00,0.00,30.2,28.5,00.0,38.7,31.7,12.9,0000.0,0010.14,0003.73,0002.31
2023-05-06 04:39:00,,0825.4,5.00,0.00,30.2,28.6,00.0,38.7,31.8,13.1,0000.0,0010.25,0003.71,0002.30
2023-05-06 04:40:00,,0825.4,5.00,0.00,30.2,28.6,00.0,38.7,31.7,13.0,0000.0,0010.60,0003.71,0002.28
2023-05-06 04:41:00,,0825.5,5.00,0.00,30.2,28.6,00.0,38.7,31.8,12.9,0000.0,0011.74,0003.76,0002.28
2023-05-06 04:42:00,,0825.5,5.00,0.00,30.2,28.7,00.0,38.6,31.8,12.8,0000.0,0012.13,0003.83,0002.28
2023-05-06 04:43:00,,0825.5,5.00,0.00,30.2,28.6,00.0,38.7,31.8,12.8,0000.0,0012.57,0003.96,0002.28
2023-05-06 04:44:00,,0825.5,5.01,0.00,30.2,28.6,00.0,38.6,31.7,13.2,0000.0,0012.59,0004.01,0002.29
2023-05-06 04:45:00,,0825.5,5.00,0.00,30.2,28.6,00.0,38.6,31.7,13.1,0000.0,0012.17,0004.03,0002.28
2023-05-06 04:46:00,,0825.5,5.00,0.00,30.2,28.6,00.0,38.6,31.7,13.0,0000.0,0012.84,0004.07,0002.28
2023-05-06 04:47:00,,0825.6,5.01,0.00,30.2,28.6,00.0,38.6,31.7,12.9,0000.0,0013.60,0004.07,0002.27
2023-05-06 04:48:00,,0825.6,5.00,0.00,30.2,28.6,00.0,38.6,31.7,12.9,0000.0,0013.67,0004.08,0002.23
2023-05-06 04:49:00,,0825.5,5.00,0.00,30.2,28.6,00.0,38.6,31.7,12.7,0000.0,0013.31,0004.10,0002.23
2023-05-06 04:50:00,,0825.5,5.00,0.00,30.3,28.7,00.0,38.6,31.7,12.7,0000.0,0012.90,0004.06,0002.23
2023-05-06 04:51:00,,0825.5,5.00,0.00,30.2,28.7,00.0,38.6,31.7,12.6,0000.0,0012.85,0004.07,0002.23
2023-05-06 04:52:00,,0825.5,5.00,0.00,30.3,28.7,00.0,38.7,31.8,12.5,0000.0,0011.80,0004.05,0002.24
2023-05-06 04:53:00,,0825.6,4.99,0.00,30.3,28.7,00.0,38.7,31.8,12.4,0000.0,0011.79,0004.01,0002.23
2023-05-06 04:54:00,,0825.6,5.01,0.00,30.3,28.8,00.0,38.7,31.8,12.4,0000.0,0011.44,0003.91,0002.21
2023-05-06 04:55:00,,0825.6,5.00,0.00,30.3,28.8,00.0,38.7,31.8,12.1,0000.0,0011.39,0003.90,0002.23
2023-05-06 04:56:00,,0825.6,5.00,0.00,30.3,28.8,00.0,38.7,31.8,12.0,0000.0,0011.31,0003.87,0002.22
2023-05-06 04:57:00,,0825.6,5.00,0.00,30.3,28.7,00.0,38.7,31.8,12.1,0000.0,0010.77,0003.80,0002.22
2023-05-06 04:58:00,,0825.6,5.00,0.00,30.2,28.7,00.0,38.7,31.7,12.1,0000.0,0010.01,0003.80,0002.22
2023-05-06 04:59:00,,0825.6,5.00,0.00,30.2,28.7,00.0,38.7,31.7,12.1,0000.0,0010.12,0003.75,0002.23
